Time,TemperatureF,DewpointF,PressureIn,WindDirection,WindDirectionDegrees,WindSpeedMPH,WindSpeedGustMPH,Humidity,HourlyPrecipIn,Conditions,Clouds,dailyrainin,SoftwareType,DateUTC
2013-08-09 00:00:00,73.1,68.7,30.07,WSW,248,0.0,1.1,86,0.00,,,0.00,WUHU216HW,2013-08-09 04:00:00,
2013-08-09 00:01:00,73.1,68.7,30.07,WSW,248,0.0,1.1,86,0.00,,,0.00,WUHU216HW,2013-08-09 04:01:00,
2013-08-09 00:06:00,73.1,68.7,30.07,SSW,203,0.9,1.1,86,0.00,,,0.00,WUHU216HW,2013-08-09 04:06:00,
2013-08-09 00:11:00,73.1,68.7,30.07,SSE,158,0.4,1.1,86,0.00,,,0.00,WUHU216HW,2013-08-09 04:11:00,
2013-08-09 00:16:00,73.1,68.7,30.07,NW,315,0.0,1.6,86,0.00,,,0.00,WUHU216HW,2013-08-09 04:16:00,
2013-08-09 00:21:00,73.1,68.7,30.07,SSW,203,0.4,1.6,86,0.00,,,0.00,WUHU216HW,2013-08-09 04:21:00,
2013-08-09 00:26:00,73.1,68.7,30.07,West,270,0.0,0.9,86,0.00,,,0.00,WUHU216HW,2013-08-09 04:26:00,
2013-08-09 00:31:00,73.1,68.7,30.07,WNW,293,0.0,0.9,86,0.00,,,0.00,WUHU216HW,2013-08-09 04:31:00,
2013-08-09 00:36:00,73.1,68.7,30.07,SSW,203,0.0,1.3,86,0.00,,,0.00,WUHU216HW,2013-08-09 04:36:00,
2013-08-09 00:41:00,73.1,68.7,30.07,North,0,0.0,1.3,86,0.00,,,0.00,WUHU216HW,2013-08-09 04:41:00,
2013-08-09 00:46:00,73.1,68.7,30.07,South,180,0.0,1.1,86,0.00,,,0.00,WUHU216HW,2013-08-09 04:46:00,
2013-08-09 00:51:00,72.9,68.5,30.07,South,180,0.2,1.1,86,0.00,,,0.00,WUHU216HW,2013-08-09 04:51:00,
2013-08-09 00:56:00,72.9,68.1,30.07,ENE,68,0.0,0.4,85,0.00,,,0.00,WUHU216HW,2013-08-09 04:56:00,
2013-08-09 01:01:00,72.9,68.1,30.07,ENE,68,0.0,0.2,85,0.00,,,0.00,WUHU216HW,2013-08-09 05:01:00,
2013-08-09 01:06:00,72.9,68.1,30.07,SE,135,0.0,0.4,85,0.00,,,0.00,WUHU216HW,2013-08-09 05:06:00,
2013-08-09 01:11:00,72.7,68.0,30.07,SSW,203,0.4,0.9,85,0.00,,,0.00,WUHU216HW,2013-08-09 05:11:00,
2013-08-09 01:16:00,72.7,68.0,30.07,SSW,203,0.0,0.9,85,0.00,,,0.00,WUHU216HW,2013-08-09 05:16:00,
2013-08-09 01:21:00,72.7,68.3,30.07,SE,135,0.7,2.0,86,0.00,,,0.00,WUHU216HW,2013-08-09 05:21:00,
2013-08-09 01:26:00,72.5,68.1,30.07,SSE,158,0.4,2.0,86,0.00,,,0.00,WUHU216HW,2013-08-09 05:26:00,
2013-08-09 01:31:00,72.5,68.1,30.06,SSW,203,1.1,1.6,86,0.00,,,0.00,WUHU216HW,2013-08-09 05:31:00,
2013-08-09 01:36:00,72.5,68.1,30.06,SSE,158,0.7,1.1,86,0.00,,,0.00,WUHU216HW,2013-08-09 05:36:00,
2013-08-09 01:41:00,72.4,68.0,30.06,SSW,203,0.0,1.1,86,0.00,,,0.00,WUHU216HW,2013-08-09 05:41:00,
2013-08-09 01:46:00,72.4,68.0,30.06,SE,135,0.0,1.3,86,0.00,,,0.00,WUHU216HW,2013-08-09 05:46:00,
2013-08-09 01:51:00,72.4,68.0,30.06,SSW,203,1.1,1.3,86,0.00,,,0.00,WUHU216HW,2013-08-09 05:51:00,
2013-08-09 01:56:00,72.4,68.0,30.06,SSE,158,0.0,1.1,86,0.00,,,0.00,WUHU216HW,2013-08-09 05:56:00,
2013-08-09 02:01:00,72.4,68.0,30.06,East,90,0.0,1.1,86,0.00,,,0.00,WUHU216HW,2013-08-09 06:01:00,
2013-08-09 02:06:00,72.4,68.0,30.06,South,180,0.2,1.1,86,0.00,,,0.00,WUHU216HW,2013-08-09 06:06:00,
2013-08-09 02:11:00,72.4,68.0,30.06,West,270,0.0,1.3,86,0.00,,,0.00,WUHU216HW,2013-08-09 06:11:00,
2013-08-09 02:16:00,72.2,67.8,30.06,WSW,248,0.2,1.3,86,0.00,,,0.00,WUHU216HW,2013-08-09 06:16:00,
2013-08-09 02:21:00,72.2,67.8,30.06,SSE,158,1.3,1.8,86,0.00,,,0.00,WUHU216HW,2013-08-09 06:21:00,
2013-08-09 02:26:00,72.2,67.8,30.06,SSE,158,0.0,1.8,86,0.00,,,0.00,WUHU216HW,2013-08-09 06:26:00,
2013-08-09 02:31:00,72.2,67.8,30.06,South,180,0.4,0.9,86,0.00,,,0.00,WUHU216HW,2013-08-09 06:31:00,
2013-08-09 02:36:00,72.0,67.6,30.05,South,180,0.0,0.9,86,0.00,,,0.00,WUHU216HW,2013-08-09 06:36:00,
2013-08-09 02:41:00,72.0,67.6,30.05,South,180,0.0,0.7,86,0.00,,,0.00,WUHU216HW,2013-08-09 06:41:00,
2013-08-09 02:46:00,72.0,68.0,30.05,SE,135,0.4,1.8,87,0.00,,,0.00,WUHU216HW,2013-08-09 06:46:00,
2013-08-09 02:51:00,72.0,67.6,30.05,East,90,0.4,1.8,86,0.00,,,0.00,WUHU216HW,2013-08-09 06:51:00,
2013-08-09 02:56:00,72.0,67.6,30.04,SSW,203,0.0,1.1,86,0.00,,,0.00,WUHU216HW,2013-08-09 06:56:00,
2013-08-09 03:01:00,72.0,68.0,30.04,SSW,203,0.7,1.1,87,0.00,,,0.00,WUHU216HW,2013-08-09 07:01:00,
2013-08-09 03:06:00,72.0,68.0,30.05,SSW,203,0.0,1.1,87,0.00,,,0.00,WUHU216HW,2013-08-09 07:06:00,
2013-08-09 03:11:00,71.8,67.4,30.05,SSW,203,0.0,0.9,86,0.00,,,0.00,WUHU216HW,2013-08-09 07:11:00,
2013-08-09 03:16:00,71.8,67.4,30.04,SSW,203,0.0,0.0,86,0.00,,,0.00,WUHU216HW,2013-08-09 07:16:00,
2013-08-09 03:21:00,71.8,67.8,30.05,East,90,0.0,1.1,87,0.00,,,0.00,WUHU216HW,2013-08-09 07:21:00,
2013-08-09 03:26:00,71.6,67.6,30.04,South,180,0.0,1.1,87,0.00,,,0.00,WUHU216HW,2013-08-09 07:26:00,
2013-08-09 03:31:00,71.8,67.8,30.04,SSW,203,0.0,1.3,87,0.00,,,0.00,WUHU216HW,2013-08-09 07:31:00,
2013-08-09 03:36:00,71.8,67.8,30.04,SSE,158,0.0,1.3,87,0.00,,,0.00,WUHU216HW,2013-08-09 07:36:00,
2013-08-09 03:41:00,71.6,67.6,30.04,SSW,203,0.0,0.2,87,0.00,,,0.00,WUHU216HW,2013-08-09 07:41:00,
2013-08-09 03:46:00,71.8,67.8,30.04,SW,225,0.0,0.2,87,0.00,,,0.00,WUHU216HW,2013-08-09 07:46:00,
2013-08-09 03:51:00,71.8,67.8,30.04,SE,135,0.4,0.9,87,0.00,,,0.00,WUHU216HW,2013-08-09 07:51:00,
2013-08-09 03:56:00,71.8,67.8,30.04,South,180,0.0,0.9,87,0.00,,,0.00,WUHU216HW,2013-08-09 07:56:00,
2013-08-09 04:01:00,71.8,67.8,30.04,South,180,0.0,1.1,87,0.00,,,0.00,WUHU216HW,2013-08-09 08:01:00,
2013-08-09 04:06:00,71.8,67.8,30.04,South,180,0.0,1.1,87,0.00,,,0.00,WUHU216HW,2013-08-09 08:06:00,
2013-08-09 04:11:00,71.8,67.8,30.03,SE,135,0.0,1.6,87,0.00,,,0.00,WUHU216HW,2013-08-09 08:11:00,
2013-08-09 04:16:00,72.0,68.0,30.03,ESE,113,0.0,1.6,87,0.00,,,0.00,WUHU216HW,2013-08-09 08:16:00,
2013-08-09 04:21:00,72.0,68.0,30.03,SW,225,0.0,1.1,87,0.00,,,0.00,WUHU216HW,2013-08-09 08:21:00,
2013-08-09 04:26:00,71.8,67.8,30.03,SSW,203,1.3,1.3,87,0.00,,,0.00,WUHU216HW,2013-08-09 08:26:00,
2013-08-09 04:31:00,71.8,67.8,30.03,WSW,248,0.0,1.3,87,0.00,,,0.00,WUHU216HW,2013-08-09 08:31:00,
2013-08-09 04:36:00,71.8,67.8,30.04,WNW,293,0.0,1.1,87,0.00,,,0.00,WUHU216HW,2013-08-09 08:36:00,
2013-08-09 04:41:00,71.8,67.8,30.03,West,270,0.0,0.0,87,0.00,,,0.00,WUHU216HW,2013-08-09 08:41:00,
2013-08-09 04:46:00,71.8,67.8,30.03,SSW,203,0.0,1.1,87,0.00,,,0.00,WUHU216HW,2013-08-09 08:46:00,
2013-08-09 04:51:00,71.8,67.8,30.03,ESE,113,0.4,1.1,87,0.00,,,0.00,WUHU216HW,2013-08-09 08:51:00,
2013-08-09 04:56:00,71.8,67.8,30.03,SSW,203,0.0,1.1,87,0.00,,,0.00,WUHU216HW,2013-08-09 08:56:00,
2013-08-09 05:01:00,72.0,68.0,30.03,SSE,158,0.2,2.0,87,0.00,,,0.00,WUHU216HW,2013-08-09 09:01:00,
2013-08-09 05:06:00,71.8,67.8,30.03,SE,135,0.0,2.0,87,0.00,,,0.00,WUHU216HW,2013-08-09 09:06:00,
2013-08-09 05:11:00,71.8,67.8,30.03,East,90,0.0,1.3,87,0.00,,,0.00,WUHU216HW,2013-08-09 09:11:00,
2013-08-09 05:16:00,71.8,67.8,30.03,NNW,338,0.0,0.4,87,0.00,,,0.00,WUHU216HW,2013-08-09 09:16:00,
2013-08-09 05:21:00,71.8,67.8,30.03,South,180,0.4,1.1,87,0.00,,,0.00,WUHU216HW,2013-08-09 09:21:00,
2013-08-09 05:26:00,71.8,67.8,30.03,ENE,68,0.0,1.6,87,0.00,,,0.00,WUHU216HW,2013-08-09 09:26:00,
2013-08-09 05:31:00,71.8,67.8,30.03,NW,315,0.0,1.6,87,0.00,,,0.00,WUHU216HW,2013-08-09 09:31:00,
2013-08-09 05:36:00,71.8,67.8,30.03,SSW,203,0.0,0.7,87,0.00,,,0.00,WUHU216HW,2013-08-09 09:36:00,
2013-08-09 05:41:00,71.6,67.6,30.03,ENE,68,0.0,1.3,87,0.00,,,0.00,WUHU216HW,2013-08-09 09:41:00,
2013-08-09 05:46:00,71.8,68.0,30.03,SW,225,0.4,1.3,88,0.00,,,0.00,WUHU216HW,2013-08-09 09:46:00,
2013-08-09 05:51:00,71.8,68.0,30.03,SW,225,0.0,1.6,88,0.00,,,0.00,WUHU216HW,2013-08-09 09:51:00,
2013-08-09 05:56:00,71.8,68.0,30.03,SSE,158,1.1,1.6,88,0.00,,,0.00,WUHU216HW,2013-08-09 09:56:00,
2013-08-09 06:01:00,71.8,68.0,30.03,WSW,248,0.7,2.5,88,0.00,,,0.00,WUHU216HW,2013-08-09 10:01:00,
2013-08-09 06:06:00,72.0,68.2,30.03,SW,225,0.0,2.5,88,0.00,,,0.00,WUHU216HW,2013-08-09 10:06:00,
2013-08-09 06:11:00,72.0,68.2,30.03,NW,315,0.0,1.1,88,0.00,,,0.00,WUHU216HW,2013-08-09 10:11:00,
2013-08-09 06:16:00,72.0,68.2,30.03,South,180,0.4,1.6,88,0.00,,,0.00,WUHU216HW,2013-08-09 10:16:00,
2013-08-09 06:21:00,72.0,68.2,30.03,SSW,203,0.0,2.5,88,0.00,,,0.00,WUHU216HW,2013-08-09 10:21:00,
2013-08-09 06:26:00,72.2,68.4,30.03,WNW,293,0.2,2.5,88,0.00,,,0.00,WUHU216HW,2013-08-09 10:26:00,
2013-08-09 06:31:00,72.2,68.4,30.03,SSE,158,0.0,3.1,88,0.00,,,0.00,WUHU216HW,2013-08-09 10:31:00,
2013-08-09 06:36:00,72.2,68.4,30.03,SE,135,1.1,3.1,88,0.00,,,0.00,WUHU216HW,2013-08-09 10:36:00,
2013-08-09 06:41:00,72.4,68.6,30.03,SSE,158,0.0,2.0,88,0.00,,,0.00,WUHU216HW,2013-08-09 10:41:00,
2013-08-09 06:46:00,72.4,68.6,30.03,SSW,203,1.1,1.8,88,0.00,,,0.00,WUHU216HW,2013-08-09 10:46:00,
2013-08-09 06:51:00,72.4,68.6,30.03,West,270,0.4,2.5,88,0.00,,,0.00,WUHU216HW,2013-08-09 10:51:00,
2013-08-09 06:56:00,72.5,68.8,30.03,NW,315,0.0,2.5,88,0.00,,,0.00,WUHU216HW,2013-08-09 10:56:00,
2013-08-09 07:01:00,72.4,68.6,30.03,SSE,158,1.1,1.1,88,0.00,,,0.00,WUHU216HW,2013-08-09 11:01:00,
2013-08-09 07:06:00,72.5,68.8,30.04,WSW,248,0.0,2.5,88,0.00,,,0.00,WUHU216HW,2013-08-09 11:06:00,
2013-08-09 07:11:00,72.5,68.8,30.04,East,90,1.1,2.5,88,0.00,,,0.00,WUHU216HW,2013-08-09 11:11:00,
2013-08-09 07:16:00,72.7,68.9,30.03,South,180,0.9,1.6,88,0.00,,,0.00,WUHU216HW,2013-08-09 11:16:00,
2013-08-09 07:21:00,72.7,68.9,30.03,NNE,23,0.0,2.2,88,0.00,,,0.00,WUHU216HW,2013-08-09 11:21:00,
2013-08-09 07:26:00,72.7,68.9,30.03,North,0,0.4,2.2,88,0.00,,,0.00,WUHU216HW,2013-08-09 11:26:00,
2013-08-09 07:31:00,72.7,68.9,30.03,SSE,158,0.0,2.0,88,0.00,,,0.00,WUHU216HW,2013-08-09 11:31:00,
2013-08-09 07:36:00,72.7,68.9,30.03,SSE,158,0.0,1.8,88,0.00,,,0.00,WUHU216HW,2013-08-09 11:36:00,
2013-08-09 07:41:00,72.7,68.9,30.03,SSW,203,0.9,2.5,88,0.00,,,0.00,WUHU216HW,2013-08-09 11:41:00,
2013-08-09 07:46:00,72.7,68.9,30.03,WSW,248,0.2,2.5,88,0.00,,,0.00,WUHU216HW,2013-08-09 11:46:00,
2013-08-09 07:51:00,72.5,68.8,30.03,SSE,158,0.0,1.3,88,0.00,,,0.00,WUHU216HW,2013-08-09 11:51:00,
2013-08-09 07:56:00,72.7,68.9,30.03,SSE,158,0.0,1.3,88,0.00,,,0.00,WUHU216HW,2013-08-09 11:56:00,
2013-08-09 08:01:00,72.5,68.8,30.03,South,180,1.3,1.6,88,0.00,,,0.00,WUHU216HW,2013-08-09 12:01:00,
2013-08-09 08:06:00,72.5,68.8,30.03,ESE,113,0.0,1.6,88,0.00,,,0.00,WUHU216HW,2013-08-09 12:06:00,
2013-08-09 08:11:00,72.7,68.9,30.03,SSW,203,0.0,1.1,88,0.00,,,0.00,WUHU216HW,2013-08-09 12:11:00,
2013-08-09 08:16:00,72.7,68.9,30.03,SSE,158,0.0,0.0,88,0.00,,,0.00,WUHU216HW,2013-08-09 12:16:00,
2013-08-09 08:21:00,72.7,69.3,30.03,SSW,203,0.0,1.8,89,0.00,,,0.00,WUHU216HW,2013-08-09 12:21:00,
2013-08-09 08:26:00,72.7,69.3,30.03,WNW,293,0.0,1.8,89,0.00,,,0.00,WUHU216HW,2013-08-09 12:26:00,
2013-08-09 08:31:00,72.7,69.3,30.03,SSE,158,0.0,1.1,89,0.00,,,0.00,WUHU216HW,2013-08-09 12:31:00,
2013-08-09 08:36:00,72.7,69.3,30.03,SSW,203,0.0,1.1,89,0.00,,,0.00,WUHU216HW,2013-08-09 12:36:00,
2013-08-09 08:41:00,72.7,69.3,30.02,SSE,158,0.4,1.1,89,0.00,,,0.00,WUHU216HW,2013-08-09 12:41:00,
2013-08-09 08:46:00,72.7,69.3,30.02,SSW,203,0.0,1.1,89,0.00,,,0.00,WUHU216HW,2013-08-09 12:46:00,
2013-08-09 08:51:00,72.7,69.3,30.02,SSW,203,0.0,1.1,89,0.00,,,0.00,WUHU216HW,2013-08-09 12:51:00,
2013-08-09 08:56:00,72.7,69.3,30.02,SSW,203,0.4,1.8,89,0.00,,,0.00,WUHU216HW,2013-08-09 12:56:00,
2013-08-09 09:01:00,72.9,69.5,30.02,SSW,203,0.0,1.8,89,0.00,,,0.00,WUHU216HW,2013-08-09 13:01:00,
2013-08-09 09:06:00,72.9,69.5,30.02,SW,225,0.0,2.5,89,0.00,,,0.00,WUHU216HW,2013-08-09 13:06:00,
2013-08-09 09:11:00,72.9,69.8,30.02,SSE,158,0.0,2.5,90,0.00,,,0.00,WUHU216HW,2013-08-09 13:11:00,
2013-08-09 09:16:00,72.9,69.8,30.01,SSW,203,0.0,1.8,90,0.00,,,0.00,WUHU216HW,2013-08-09 13:16:00,
2013-08-09 09:21:00,72.9,69.8,30.01,South,180,0.4,1.3,90,0.00,,,0.00,WUHU216HW,2013-08-09 13:21:00,
2013-08-09 09:26:00,72.9,69.8,30.01,SSE,158,0.7,1.3,90,0.00,,,0.00,WUHU216HW,2013-08-09 13:26:00,
2013-08-09 09:31:00,72.9,69.8,30.01,NE,45,0.0,1.3,90,0.00,,,0.00,WUHU216HW,2013-08-09 13:31:00,
2013-08-09 09:36:00,72.9,69.8,30.01,SSW,203,1.6,1.6,90,0.00,,,0.00,WUHU216HW,2013-08-09 13:36:00,
2013-08-09 09:41:00,72.9,69.8,30.00,SSW,203,1.8,1.8,90,0.00,,,0.00,WUHU216HW,2013-08-09 13:41:00,
2013-08-09 09:46:00,73.1,70.0,30.01,SSW,203,0.4,2.0,90,0.00,,,0.00,WUHU216HW,2013-08-09 13:46:00,
2013-08-09 09:51:00,73.1,70.0,30.01,SE,135,0.4,2.0,90,0.00,,,0.00,WUHU216HW,2013-08-09 13:51:00,
2013-08-09 09:56:00,73.1,70.0,30.01,South,180,2.5,2.5,90,0.00,,,0.00,WUHU216HW,2013-08-09 13:56:00,
2013-08-09 10:01:00,73.1,70.3,30.01,SW,225,1.3,2.5,91,0.00,,,0.00,WUHU216HW,2013-08-09 14:01:00,
2013-08-09 10:06:00,73.1,70.3,30.00,ESE,113,0.0,3.4,91,0.00,,,0.00,WUHU216HW,2013-08-09 14:06:00,
2013-08-09 10:11:00,73.1,70.3,30.00,SE,135,0.0,3.4,91,0.00,,,0.00,WUHU216HW,2013-08-09 14:11:00,
2013-08-09 10:16:00,73.1,70.3,29.99,North,0,0.0,1.8,91,0.00,,,0.00,WUHU216HW,2013-08-09 14:16:00,
2013-08-09 10:21:00,73.1,70.3,29.98,East,90,0.4,1.8,91,0.00,,,0.00,WUHU216HW,2013-08-09 14:21:00,
2013-08-09 10:26:00,73.1,70.3,29.99,SSW,203,0.4,0.7,91,0.00,,,0.00,WUHU216HW,2013-08-09 14:26:00,
2013-08-09 10:31:00,73.3,70.8,29.98,SE,135,0.0,1.6,92,0.00,,,0.00,WUHU216HW,2013-08-09 14:31:00,
2013-08-09 10:36:00,73.3,70.8,29.98,SSE,158,0.2,2.5,92,0.00,,,0.00,WUHU216HW,2013-08-09 14:36:00,
2013-08-09 10:41:00,73.3,70.8,29.98,SE,135,0.4,2.5,92,0.00,,,0.00,WUHU216HW,2013-08-09 14:41:00,
2013-08-09 10:46:00,73.3,70.8,29.98,WSW,248,0.0,2.5,92,0.00,,,0.00,WUHU216HW,2013-08-09 14:46:00,
2013-08-09 10:51:00,73.4,71.0,29.97,South,180,0.9,2.5,92,0.00,,,0.00,WUHU216HW,2013-08-09 14:51:00,
2013-08-09 10:56:00,73.4,71.0,29.97,South,180,0.7,1.8,92,0.00,,,0.00,WUHU216HW,2013-08-09 14:56:00,
2013-08-09 11:01:00,73.6,71.2,29.97,SW,225,0.4,1.3,92,0.00,,,0.00,WUHU216HW,2013-08-09 15:01:00,
2013-08-09 11:06:00,73.6,71.2,29.97,SW,225,0.7,2.5,92,0.00,,,0.00,WUHU216HW,2013-08-09 15:06:00,
2013-08-09 11:11:00,73.4,71.0,29.97,NW,315,1.1,2.5,92,0.00,,,0.00,WUHU216HW,2013-08-09 15:11:00,
2013-08-09 11:16:00,73.6,71.2,29.97,SSW,203,0.4,3.4,92,0.00,,,0.00,WUHU216HW,2013-08-09 15:16:00,
2013-08-09 11:21:00,73.4,71.0,29.96,SSW,203,0.7,3.4,92,0.00,,,0.00,WUHU216HW,2013-08-09 15:21:00,
2013-08-09 11:26:00,73.6,71.2,29.96,SE,135,0.7,2.0,92,0.00,,,0.00,WUHU216HW,2013-08-09 15:26:00,
2013-08-09 11:31:00,73.4,71.0,29.96,South,180,1.1,2.0,92,0.00,,,0.00,WUHU216HW,2013-08-09 15:31:00,
2013-08-09 11:36:00,73.4,71.0,29.96,SSE,158,2.7,4.0,92,0.00,,,0.00,WUHU216HW,2013-08-09 15:36:00,
2013-08-09 11:41:00,73.4,71.0,29.96,SSE,158,0.4,4.0,92,0.00,,,0.00,WUHU216HW,2013-08-09 15:41:00,
2013-08-09 11:46:00,73.4,71.0,29.96,South,180,1.8,2.5,92,0.00,,,0.00,WUHU216HW,2013-08-09 15:46:00,
2013-08-09 11:51:00,73.6,71.2,29.95,South,180,1.8,2.2,92,0.00,,,0.00,WUHU216HW,2013-08-09 15:51:00,
2013-08-09 11:56:00,73.6,71.2,29.95,WSW,248,0.2,2.9,92,0.00,,,0.00,WUHU216HW,2013-08-09 15:56:00,
2013-08-09 12:01:00,73.6,71.2,29.95,SSE,158,2.0,2.9,92,0.00,,,0.00,WUHU216HW,2013-08-09 16:01:00,
2013-08-09 12:06:00,73.6,71.2,29.95,SSE,158,2.7,2.7,92,0.00,,,0.00,WUHU216HW,2013-08-09 16:06:00,
2013-08-09 12:11:00,73.8,71.4,29.95,WSW,248,0.4,3.1,92,0.00,,,0.00,WUHU216HW,2013-08-09 16:11:00,
2013-08-09 12:16:00,73.8,71.4,29.95,SSW,203,0.4,3.1,92,0.00,,,0.00,WUHU216HW,2013-08-09 16:16:00,
2013-08-09 12:21:00,73.6,71.2,29.95,SSE,158,1.3,2.9,92,0.00,,,0.00,WUHU216HW,2013-08-09 16:21:00,
2013-08-09 12:26:00,73.4,71.0,29.95,South,180,1.1,2.5,92,0.00,,,0.00,WUHU216HW,2013-08-09 16:26:00,
2013-08-09 12:31:00,73.4,71.0,29.94,SSE,158,1.3,2.5,92,0.00,,,0.00,WUHU216HW,2013-08-09 16:31:00,
2013-08-09 12:36:00,73.4,71.0,29.94,SE,135,0.4,2.5,92,0.00,,,0.00,WUHU216HW,2013-08-09 16:36:00,
2013-08-09 12:41:00,73.4,71.0,29.93,SSW,203,0.2,2.5,92,0.00,,,0.00,WUHU216HW,2013-08-09 16:41:00,
2013-08-09 12:46:00,73.4,71.0,29.93,NE,45,0.2,2.0,92,0.00,,,0.00,WUHU216HW,2013-08-09 16:46:00,
2013-08-09 12:51:00,73.4,71.0,29.93,North,0,0.9,2.0,92,0.00,,,0.00,WUHU216HW,2013-08-09 16:51:00,
2013-08-09 12:56:00,73.3,70.8,29.93,SSW,203,2.9,3.1,92,0.00,,,0.00,WUHU216HW,2013-08-09 16:56:00,
2013-08-09 13:01:00,73.3,70.8,29.92,SSW,203,1.1,3.4,92,0.00,,,0.00,WUHU216HW,2013-08-09 17:01:00,
2013-08-09 13:06:00,73.3,70.8,29.92,NE,45,1.3,3.4,92,0.00,,,0.00,WUHU216HW,2013-08-09 17:06:00,
2013-08-09 13:11:00,73.3,70.8,29.92,South,180,0.4,2.9,92,0.00,,,0.00,WUHU216HW,2013-08-09 17:11:00,
2013-08-09 13:16:00,73.3,70.8,29.91,ESE,113,0.7,1.8,92,0.00,,,0.00,WUHU216HW,2013-08-09 17:16:00,
2013-08-09 13:21:00,73.1,70.3,29.90,South,180,2.5,2.5,91,0.00,,,0.00,WUHU216HW,2013-08-09 17:21:00,
2013-08-09 13:26:00,73.1,70.3,29.90,WSW,248,3.4,3.4,91,0.00,,,0.00,WUHU216HW,2013-08-09 17:26:00,
2013-08-09 13:31:00,73.1,70.3,29.90,SSE,158,0.4,3.4,91,0.00,,,0.00,WUHU216HW,2013-08-09 17:31:00,
2013-08-09 13:36:00,73.1,70.3,29.90,SSW,203,0.4,3.4,91,0.00,,,0.00,WUHU216HW,2013-08-09 17:36:00,
2013-08-09 13:41:00,72.9,70.1,29.90,SW,225,1.8,3.4,91,0.00,,,0.00,WUHU216HW,2013-08-09 17:41:00,
2013-08-09 13:46:00,72.9,70.1,29.90,West,270,1.3,4.7,91,0.00,,,0.00,WUHU216HW,2013-08-09 17:46:00,
2013-08-09 13:51:00,72.7,69.9,29.90,SSW,203,1.1,4.7,91,0.00,,,0.00,WUHU216HW,2013-08-09 17:51:00,
2013-08-09 13:56:00,72.5,69.8,29.90,East,90,1.8,3.8,91,0.00,,,0.00,WUHU216HW,2013-08-09 17:56:00,
2013-08-09 14:01:00,72.4,69.6,29.89,South,180,0.4,2.7,91,0.00,,,0.00,WUHU216HW,2013-08-09 18:01:00,
2013-08-09 14:06:00,72.4,69.6,29.89,South,180,2.2,3.8,91,0.00,,,0.00,WUHU216HW,2013-08-09 18:06:00,
2013-08-09 14:11:00,72.0,69.2,29.89,SSW,203,4.0,9.4,91,0.00,,,0.00,WUHU216HW,2013-08-09 18:11:00,
2013-08-09 14:16:00,71.8,69.0,29.89,South,180,0.9,9.4,91,0.00,,,0.00,WUHU216HW,2013-08-09 18:16:00,
2013-08-09 14:21:00,71.6,68.9,29.89,ESE,113,2.5,4.0,91,0.00,,,0.00,WUHU216HW,2013-08-09 18:21:00,
2013-08-09 14:26:00,71.6,68.9,29.89,South,180,1.1,3.4,91,0.00,,,0.00,WUHU216HW,2013-08-09 18:26:00,
2013-08-09 14:31:00,71.6,68.9,29.89,SSW,203,0.2,3.4,91,0.00,,,0.00,WUHU216HW,2013-08-09 18:31:00,
2013-08-09 14:36:00,71.5,68.7,29.88,North,0,0.0,1.1,91,0.00,,,0.00,WUHU216HW,2013-08-09 18:36:00,
2013-08-09 14:41:00,71.6,68.9,29.87,North,0,0.0,0.2,91,0.00,,,0.00,WUHU216HW,2013-08-09 18:41:00,
2013-08-09 14:46:00,71.6,68.9,29.85,North,0,0.0,0.0,91,0.00,,,0.00,WUHU216HW,2013-08-09 18:46:00,
2013-08-09 14:51:00,71.8,69.0,29.85,North,0,0.0,0.0,91,0.00,,,0.00,WUHU216HW,2013-08-09 18:51:00,
2013-08-09 14:56:00,71.8,69.0,29.85,North,0,0.0,0.0,91,0.00,,,0.00,WUHU216HW,2013-08-09 18:56:00,
2013-08-09 15:01:00,71.8,69.0,29.85,North,0,0.0,0.0,91,0.00,,,0.00,WUHU216HW,2013-08-09 19:01:00,
2013-08-09 15:06:00,71.8,69.0,29.85,North,0,0.0,0.0,91,0.00,,,0.00,WUHU216HW,2013-08-09 19:06:00,
2013-08-09 15:11:00,72.0,69.2,29.85,North,0,0.0,0.0,91,0.00,,,0.00,WUHU216HW,2013-08-09 19:11:00,
2013-08-09 15:16:00,72.2,69.4,29.84,North,0,0.0,0.0,91,0.00,,,0.00,WUHU216HW,2013-08-09 19:16:00,
2013-08-09 15:21:00,72.4,69.9,29.83,North,0,0.0,0.0,92,0.00,,,0.00,WUHU216HW,2013-08-09 19:21:00,
2013-08-09 15:26:00,72.4,69.9,29.83,North,0,0.0,0.0,92,0.00,,,0.00,WUHU216HW,2013-08-09 19:26:00,
2013-08-09 15:31:00,72.4,69.6,29.83,North,0,0.0,0.0,91,0.00,,,0.00,WUHU216HW,2013-08-09 19:31:00,
2013-08-09 15:36:00,72.5,69.8,29.82,North,0,0.0,0.0,91,0.00,,,0.00,WUHU216HW,2013-08-09 19:36:00,
2013-08-09 15:41:00,72.9,70.5,29.83,North,0,0.0,0.0,92,0.00,,,0.00,WUHU216HW,2013-08-09 19:41:00,
2013-08-09 15:46:00,72.9,70.1,29.83,North,0,0.0,0.0,91,0.00,,,0.00,WUHU216HW,2013-08-09 19:46:00,
2013-08-09 15:51:00,72.9,70.5,29.82,North,0,0.0,0.0,92,0.00,,,0.00,WUHU216HW,2013-08-09 19:51:00,
2013-08-09 15:56:00,73.1,70.7,29.82,North,0,0.0,0.0,92,0.00,,,0.00,WUHU216HW,2013-08-09 19:56:00,
2013-08-09 16:01:00,73.4,71.0,29.82,North,0,0.0,0.0,92,0.00,,,0.00,WUHU216HW,2013-08-09 20:01:00,
2013-08-09 16:06:00,73.3,71.1,29.81,South,180,0.2,2.0,93,0.00,,,0.00,WUHU216HW,2013-08-09 20:06:00,
2013-08-09 16:11:00,73.3,71.1,29.81,SSW,203,1.8,2.0,93,0.00,,,0.00,WUHU216HW,2013-08-09 20:11:00,
2013-08-09 16:16:00,73.1,70.3,29.80,SSE,158,1.3,1.8,91,0.00,,,0.00,WUHU216HW,2013-08-09 20:16:00,
2013-08-09 16:21:00,73.3,70.8,29.81,SSE,158,1.3,1.8,92,0.00,,,0.00,WUHU216HW,2013-08-09 20:21:00,
2013-08-09 16:26:00,73.3,70.8,29.80,SSE,158,1.1,4.3,92,0.00,,,0.00,WUHU216HW,2013-08-09 20:26:00,
2013-08-09 16:31:00,73.4,71.3,29.80,SSW,203,2.9,4.3,93,0.00,,,0.00,WUHU216HW,2013-08-09 20:31:00,
2013-08-09 16:36:00,73.4,71.3,29.80,SSE,158,1.3,4.0,93,0.00,,,0.00,WUHU216HW,2013-08-09 20:36:00,
2013-08-09 16:41:00,73.4,71.3,29.80,South,180,1.1,4.7,93,0.00,,,0.00,WUHU216HW,2013-08-09 20:41:00,
2013-08-09 16:46:00,73.6,71.2,29.80,SSE,158,0.7,4.7,92,0.00,,,0.00,WUHU216HW,2013-08-09 20:46:00,
2013-08-09 16:51:00,73.8,71.6,29.80,SSE,158,1.1,2.2,93,0.00,,,0.00,WUHU216HW,2013-08-09 20:51:00,
2013-08-09 16:56:00,73.8,71.6,29.80,SSE,158,0.4,3.1,93,0.00,,,0.00,WUHU216HW,2013-08-09 20:56:00,
2013-08-09 17:01:00,73.8,71.6,29.80,SSE,158,1.8,3.1,93,0.00,,,0.00,WUHU216HW,2013-08-09 21:01:00,
2013-08-09 17:06:00,74.2,72.0,29.80,SW,225,0.0,1.8,93,0.00,,,0.00,WUHU216HW,2013-08-09 21:06:00,
2013-08-09 17:11:00,74.3,72.2,29.80,NNW,338,1.3,2.0,93,0.00,,,0.00,WUHU216HW,2013-08-09 21:11:00,
2013-08-09 17:16:00,74.5,72.4,29.80,SE,135,3.1,3.1,93,0.00,,,0.00,WUHU216HW,2013-08-09 21:16:00,
2013-08-09 17:21:00,74.7,72.3,29.80,SW,225,0.4,3.1,92,0.00,,,0.00,WUHU216HW,2013-08-09 21:21:00,
2013-08-09 17:26:00,74.7,72.3,29.80,SE,135,0.4,3.1,92,0.00,,,0.00,WUHU216HW,2013-08-09 21:26:00,
2013-08-09 17:31:00,74.9,72.5,29.80,ESE,113,1.1,3.1,92,0.00,,,0.00,WUHU216HW,2013-08-09 21:31:00,
2013-08-09 17:36:00,74.9,72.5,29.80,ENE,68,1.1,2.0,92,0.00,,,0.00,WUHU216HW,2013-08-09 21:36:00,
2013-08-09 17:41:00,74.9,72.5,29.80,West,270,0.4,3.1,92,0.00,,,0.00,WUHU216HW,2013-08-09 21:41:00,
2013-08-09 17:46:00,74.9,72.5,29.80,SE,135,1.1,3.1,92,0.00,,,0.00,WUHU216HW,2013-08-09 21:46:00,
2013-08-09 17:51:00,75.1,72.6,29.80,SSE,158,0.4,2.0,92,0.00,,,0.00,WUHU216HW,2013-08-09 21:51:00,
2013-08-09 17:56:00,75.1,72.6,29.80,WNW,293,2.5,2.5,92,0.00,,,0.00,WUHU216HW,2013-08-09 21:56:00,
2013-08-09 18:01:00,75.2,72.8,29.80,West,270,0.0,3.4,92,0.00,,,0.00,WUHU216HW,2013-08-09 22:01:00,
2013-08-09 18:06:00,75.4,73.0,29.80,SSE,158,2.5,3.4,92,0.00,,,0.00,WUHU216HW,2013-08-09 22:06:00,
2013-08-09 18:11:00,75.6,73.2,29.80,SE,135,0.4,2.5,92,0.00,,,0.00,WUHU216HW,2013-08-09 22:11:00,
2013-08-09 18:16:00,75.8,73.4,29.80,SSE,158,0.0,3.1,92,0.00,,,0.00,WUHU216HW,2013-08-09 22:16:00,
2013-08-09 18:21:00,75.6,73.2,29.80,WSW,248,0.0,3.1,92,0.00,,,0.00,WUHU216HW,2013-08-09 22:21:00,
2013-08-09 18:26:00,75.6,73.2,29.80,South,180,0.0,1.8,92,0.00,,,0.00,WUHU216HW,2013-08-09 22:26:00,
2013-08-09 18:31:00,75.6,73.2,29.80,NNW,338,0.0,1.8,92,0.00,,,0.00,WUHU216HW,2013-08-09 22:31:00,
2013-08-09 18:36:00,75.6,73.2,29.80,NW,315,0.9,1.3,92,0.00,,,0.00,WUHU216HW,2013-08-09 22:36:00,
2013-08-09 18:41:00,75.4,73.0,29.80,East,90,0.4,1.3,92,0.00,,,0.00,WUHU216HW,2013-08-09 22:41:00,
2013-08-09 18:46:00,75.4,73.0,29.80,SSE,158,0.2,1.6,92,0.00,,,0.00,WUHU216HW,2013-08-09 22:46:00,
2013-08-09 18:51:00,75.6,73.2,29.80,South,180,0.4,1.6,92,0.00,,,0.00,WUHU216HW,2013-08-09 22:51:00,
2013-08-09 18:56:00,75.6,73.2,29.80,ENE,68,0.0,0.9,92,0.00,,,0.00,WUHU216HW,2013-08-09 22:56:00,
2013-08-09 19:01:00,75.8,73.4,29.80,SSE,158,0.4,0.4,92,0.00,,,0.00,WUHU216HW,2013-08-09 23:01:00,
2013-08-09 19:06:00,75.6,73.2,29.80,ENE,68,0.0,0.4,92,0.00,,,0.00,WUHU216HW,2013-08-09 23:06:00,
2013-08-09 19:11:00,75.8,73.4,29.80,SE,135,0.0,1.1,92,0.00,,,0.00,WUHU216HW,2013-08-09 23:11:00,
2013-08-09 19:16:00,75.6,73.2,29.81,SE,135,0.4,1.1,92,0.00,,,0.00,WUHU216HW,2013-08-09 23:16:00,
2013-08-09 19:21:00,75.6,73.2,29.80,East,90,0.9,0.9,92,0.00,,,0.00,WUHU216HW,2013-08-09 23:21:00,
2013-08-09 19:26:00,75.4,73.0,29.81,ENE,68,0.0,0.9,92,0.00,,,0.00,WUHU216HW,2013-08-09 23:26:00,
2013-08-09 19:31:00,75.4,73.0,29.81,ENE,68,0.0,0.9,92,0.00,,,0.00,WUHU216HW,2013-08-09 23:31:00,
2013-08-09 19:36:00,75.4,73.0,29.81,NNW,338,0.0,0.0,92,0.00,,,0.00,WUHU216HW,2013-08-09 23:36:00,
2013-08-09 19:41:00,75.2,72.8,29.81,NNW,338,0.0,0.0,92,0.00,,,0.00,WUHU216HW,2013-08-09 23:41:00,
2013-08-09 19:46:00,75.2,72.8,29.82,North,0,0.0,0.0,92,0.00,,,0.00,WUHU216HW,2013-08-09 23:46:00,
2013-08-09 19:51:00,75.2,72.8,29.82,North,0,0.0,0.0,92,0.00,,,0.00,WUHU216HW,2013-08-09 23:51:00,
2013-08-09 19:56:00,75.2,72.8,29.82,North,0,0.0,0.0,92,0.00,,,0.00,WUHU216HW,2013-08-09 23:56:00,
2013-08-09 20:01:00,75.2,72.8,29.82,North,0,0.0,0.0,92,0.00,,,0.00,WUHU216HW,2013-08-10 00:01:00,
2013-08-09 20:06:00,75.2,72.8,29.82,North,0,0.0,0.0,92,0.00,,,0.00,WUHU216HW,2013-08-10 00:06:00,
2013-08-09 20:11:00,75.1,72.6,29.82,North,0,0.0,0.0,92,0.00,,,0.00,WUHU216HW,2013-08-10 00:11:00,
2013-08-09 20:16:00,74.9,72.5,29.81,North,0,0.0,0.0,92,0.00,,,0.00,WUHU216HW,2013-08-10 00:16:00,
2013-08-09 20:21:00,74.9,72.5,29.81,North,0,0.0,0.0,92,0.00,,,0.00,WUHU216HW,2013-08-10 00:21:00,
2013-08-09 20:26:00,74.9,72.5,29.81,North,0,0.0,0.0,92,0.00,,,0.00,WUHU216HW,2013-08-10 00:26:00,
2013-08-09 20:31:00,74.7,72.3,29.81,North,0,0.0,0.0,92,0.00,,,0.00,WUHU216HW,2013-08-10 00:31:00,
2013-08-09 20:36:00,74.7,72.3,29.81,North,0,0.0,0.0,92,0.00,,,0.00,WUHU216HW,2013-08-10 00:36:00,
2013-08-09 20:41:00,74.9,72.5,29.81,North,0,0.0,0.0,92,0.00,,,0.00,WUHU216HW,2013-08-10 00:41:00,
2013-08-09 20:46:00,74.9,72.5,29.82,North,0,0.0,0.0,92,0.00,,,0.00,WUHU216HW,2013-08-10 00:46:00,
2013-08-09 20:51:00,74.9,72.5,29.83,North,0,0.0,0.0,92,0.00,,,0.00,WUHU216HW,2013-08-10 00:51:00,
2013-08-09 20:56:00,74.9,72.5,29.83,North,0,0.0,0.0,92,0.00,,,0.00,WUHU216HW,2013-08-10 00:56:00,
2013-08-09 21:01:00,74.7,72.3,29.84,North,0,0.0,0.0,92,0.00,,,0.00,WUHU216HW,2013-08-10 01:01:00,
2013-08-09 21:06:00,74.9,72.5,29.84,North,0,0.0,0.0,92,0.00,,,0.00,WUHU216HW,2013-08-10 01:06:00,
2013-08-09 21:11:00,74.9,72.5,29.84,North,0,0.0,0.0,92,0.00,,,0.00,WUHU216HW,2013-08-10 01:11:00,
2013-08-09 21:16:00,74.7,72.3,29.84,NW,315,0.0,0.0,92,0.00,,,0.00,WUHU216HW,2013-08-10 01:16:00,
2013-08-09 21:21:00,74.7,72.3,29.84,NW,315,0.0,0.0,92,0.00,,,0.00,WUHU216HW,2013-08-10 01:21:00,
2013-08-09 21:26:00,74.5,72.1,29.84,North,0,0.0,0.0,92,0.00,,,0.00,WUHU216HW,2013-08-10 01:26:00,
2013-08-09 21:31:00,74.5,72.1,29.84,North,0,0.0,0.0,92,0.00,,,0.00,WUHU216HW,2013-08-10 01:31:00,
2013-08-09 21:36:00,74.5,72.1,29.83,NW,315,0.0,0.0,92,0.00,,,0.00,WUHU216HW,2013-08-10 01:36:00,
2013-08-09 21:41:00,74.3,71.9,29.83,NW,315,0.0,0.0,92,0.00,,,0.00,WUHU216HW,2013-08-10 01:41:00,
2013-08-09 21:46:00,74.2,71.7,29.83,NW,315,0.0,0.0,92,0.00,,,0.00,WUHU216HW,2013-08-10 01:46:00,
2013-08-09 21:51:00,74.0,71.6,29.83,North,0,0.0,0.0,92,0.00,,,0.00,WUHU216HW,2013-08-10 01:51:00,
2013-08-09 21:56:00,74.2,71.7,29.83,North,0,0.0,0.0,92,0.00,,,0.00,WUHU216HW,2013-08-10 01:56:00,
2013-08-09 22:01:00,74.2,71.7,29.83,North,0,0.0,0.0,92,0.00,,,0.00,WUHU216HW,2013-08-10 02:01:00,
2013-08-09 22:06:00,74.2,71.7,29.83,NNE,23,0.0,0.0,92,0.00,,,0.00,WUHU216HW,2013-08-10 02:06:00,
2013-08-09 22:11:00,74.0,71.6,29.83,NNE,23,0.0,0.9,92,0.00,,,0.00,WUHU216HW,2013-08-10 02:11:00,
2013-08-09 22:16:00,73.8,71.4,29.83,NNE,23,0.0,0.9,92,0.00,,,0.00,WUHU216HW,2013-08-10 02:16:00,
2013-08-09 22:21:00,73.6,71.2,29.83,NNE,23,0.0,0.0,92,0.00,,,0.00,WUHU216HW,2013-08-10 02:21:00,
2013-08-09 22:26:00,73.6,71.2,29.83,North,0,0.0,0.0,92,0.00,,,0.00,WUHU216HW,2013-08-10 02:26:00,
2013-08-09 22:31:00,73.6,71.2,29.83,North,0,0.0,0.0,92,0.00,,,0.00,WUHU216HW,2013-08-10 02:31:00,
2013-08-09 22:36:00,73.6,71.2,29.83,NNE,23,0.0,0.0,92,0.00,,,0.00,WUHU216HW,2013-08-10 02:36:00,
2013-08-09 22:41:00,73.4,71.0,29.83,NNE,23,0.0,0.0,92,0.00,,,0.00,WUHU216HW,2013-08-10 02:41:00,
2013-08-09 22:46:00,73.4,71.0,29.84,NNE,23,0.0,0.0,92,0.00,,,0.00,WUHU216HW,2013-08-10 02:46:00,
2013-08-09 22:51:00,73.3,70.8,29.84,NNE,23,0.0,0.0,92,0.00,,,0.00,WUHU216HW,2013-08-10 02:51:00,
2013-08-09 22:56:00,73.1,70.3,29.84,ESE,113,0.0,0.4,91,0.00,,,0.00,WUHU216HW,2013-08-10 02:56:00,
2013-08-09 23:01:00,73.1,70.3,29.84,NNE,23,0.0,0.4,91,0.00,,,0.00,WUHU216HW,2013-08-10 03:01:00,
2013-08-09 23:06:00,73.1,70.3,29.84,NNE,23,0.0,0.2,91,0.00,,,0.00,WUHU216HW,2013-08-10 03:06:00,
2013-08-09 23:11:00,73.1,70.3,29.84,North,0,0.0,0.0,91,0.00,,,0.00,WUHU216HW,2013-08-10 03:11:00,
2013-08-09 23:16:00,73.1,70.3,29.84,NNE,23,0.0,0.0,91,0.00,,,0.00,WUHU216HW,2013-08-10 03:16:00,
2013-08-09 23:21:00,72.9,70.1,29.84,NE,45,0.0,0.0,91,0.00,,,0.00,WUHU216HW,2013-08-10 03:21:00,
2013-08-09 23:26:00,72.9,70.1,29.84,NE,45,0.0,0.0,91,0.00,,,0.00,WUHU216HW,2013-08-10 03:26:00,
2013-08-09 23:31:00,72.7,69.9,29.84,NE,45,0.0,0.0,91,0.00,,,0.00,WUHU216HW,2013-08-10 03:31:00,
2013-08-09 23:36:00,72.7,69.9,29.84,NE,45,0.0,0.0,91,0.00,,,0.00,WUHU216HW,2013-08-10 03:36:00,
2013-08-09 23:41:00,72.5,69.8,29.84,NE,45,0.0,0.0,91,0.00,,,0.00,WUHU216HW,2013-08-10 03:41:00,
2013-08-09 23:46:00,72.5,69.8,29.84,NE,45,0.0,0.0,91,0.00,,,0.00,WUHU216HW,2013-08-10 03:46:00,
2013-08-09 23:51:00,72.4,69.6,29.84,NE,45,0.0,0.0,91,0.00,,,0.00,WUHU216HW,2013-08-10 03:51:00,
2013-08-09 23:56:00,72.5,69.8,29.84,NE,45,0.0,0.0,91,0.00,,,0.00,WUHU216HW,2013-08-10 03:56:00,